Find Starlink 32584

NORAD ID: 62179 Int'l Des: 2024-225 Owner: SPXS Country: US Constellation: starlink operational
LEOCIRCULAR

当前视图

正在加载3D地球...

About Starlink 32584

Starlink 32584 (NORAD 62179) is a starlink constellation satellite (v2 mini) launched Nov 30, 2024 by SPXS of US. It operates in LEO, CIRCULAR orbit with a mass of 730.00 kg.

即将过境

Passes for default location (London). Set your location on the main map for personalized predictions.

高度历史

Loading altitude history...

两行轨道根数

1 62179U 24225S 26265.58336806 .00018402 00000-0 13848-2 0 9991
2 62179 70.0028 27.9338 0003280 252.2587 288.4337 15.02550965 5727
Epoch: Sep 22, 2026 • Age: 10 hours

当前状态

高度 572.6 km
远地点 / 近地点 N/A
速度 7.57 km/s
星下点 -39.67°S, 4.61°E
发射日期 Nov 30, 2024
运行时间 1.8 years
类型 internet

技术详情

分类 Payload
质量 730.00 kg
干质量 700.00 kg
长度 0.30 m
跨度 29.00 m
形状 ? Box + pan
制造商 SPXS
平台类型 Starlink V2M
阶段状态 In Orbit
所有者/国家 SPXS/US

Most Searched